Location: Betpouey
(42.8833°N, 0.0333°E)
Time: 08:29:05
(UTC+00:00)

SL-08 R/B - Pass Details

Date: 01 December 2020
Orbit: 950 x 1018 km, 82.9° (Epoch: 17 January)

Event Time Altitude Azimuth Distance (km) Brightness Sun altitude
Rises 18:04:19 0° 351° (N) 3,647 7.4 -17.4°
Reaches altitude 10° 18:06:50 10° 352° (N) 2,692 6.8 -17.9°
Maximum altitude 18:12:59 88° 266° (W) 957 4.4 -19.0°
Drops below altitude 10° 18:19:05 10° 175° (S) 2,668 6.9 -20.0°
Sets 18:21:34 0° 175° (S) 3,613 7.6 -20.5°
